KD0ARW-13 Weather Reports


time (UTC)temp
F
wind
direction
speed
knots
gust
knots
rain 1hr
in
rain 24hr
in
rain mn
in
humidity
%
barometer
mb
20260507155847 64 270 3.5 0.0 0.00 0.09 0.00
20260507155349 62 359 4.3 2.6 0.00 0.09 0.00
20260507154850 61 343 1.7 2.6 0.00 0.09 0.00
20260507154352 62 290 2.6 7.0 0.00 0.09 0.00
20260507153853 60 285 2.6 2.6 0.00 0.09 0.00
20260507153355 60 264 0.9 0.0 0.00 0.09 0.00
20260507152856 60 343 1.7 0.0 0.00 0.09 0.00
20260507152358 59 277 2.6 4.3 0.00 0.09 0.00
20260507151859 59 297 0.9 3.5 0.00 0.09 0.00
20260507151401 58 271 3.5 7.0 0.00 0.09 0.00
20260507150903 58 297 2.6 5.2 0.00 0.09 0.00
20260507150404 58 266 6.1 7.0 0.00 0.09 0.00
20260507145906 56 277 1.7 4.3 0.00 0.09 0.00
20260507145407 57 271 2.6 3.5 0.00 0.09 0.00
20260507144909 60 339 3.5 4.3 0.00 0.09 0.00
20260507144410 58 270 4.3 2.6 0.00 0.09 0.00
20260507143912 53 277 4.3 6.1 0.00 0.09 0.00
20260507143413 52 316 4.3 0.0 0.00 0.09 0.00
20260507142913 51 270 4.3 3.5 0.00 0.09 0.00
20260507142415 50 271 6.1 3.5 0.00 0.09 0.00
20260507141915 49 257 2.6 5.2 0.00 0.09 0.00
20260507141416 49 301 5.2 4.3 0.00 0.09 0.00
20260507140918 48 248 3.5 0.0 0.00 0.09 0.00
20260507140417 48 228 4.3 5.2 0.00 0.09 0.00
20260507135918 47 281 0.9 4.3 0.00 0.09 0.00
20260507135420 47 318 5.2 2.6 0.00 0.09 0.00
20260507134919 46 298 0.9 4.3 0.00 0.09 0.00
20260507134419 46 264 2.6 5.2 0.00 0.09 0.00
20260507133921 45 359 0.0 0.0 0.00 0.09 0.00
20260507133421 45 359 0.0 0.0 0.00 0.09 0.00
20260507132918 44 359 0.0 0.0 0.00 0.09 0.00
20260507132418 44 359 0.0 0.0 0.00 0.09 0.00
20260507131917 43 295 5.2 4.3 0.00 0.09 0.00
20260507131420 43 252 4.3 2.6 0.00 0.09 0.00
20260507130918 42 349 5.2 0.0 0.00 0.09 0.00
20260507130420 42 158 4.3 0.0 0.00 0.09 0.00
20260507125922 42 276 3.5 2.6 0.00 0.09 0.00
20260507125423 42 266 4.3 0.0 0.00 0.09 0.00
20260507124925 41 245 3.5 2.6 0.00 0.09 0.00
20260507124423 41 267 3.5 4.3 0.00 0.09 0.00
20260507123924 40 271 0.9 0.0 0.00 0.09 0.00
20260507123425 40 13 1.7 2.6 0.00 0.09 0.00
20260507122927 40 245 0.0 0.0 0.00 0.09 0.00
20260507122427 39 184 3.5 2.6 0.00 0.09 0.00
20260507121929 39 253 0.9 0.0 0.00 0.09 0.00
20260507121429 39 273 0.0 0.0 0.00 0.09 0.00
20260507120931 39 273 0.0 0.0 0.00 0.09 0.00
20260507120428 39 273 0.0 0.0 0.00 0.09 0.00
20260507115930 39 273 0.0 0.0 0.00 0.09 0.00
20260507115429 39 273 0.0 0.0 0.00 0.09 0.00
20260507114930 39 273 0.0 0.0 0.00 0.09 0.00
20260507114428 39 273 0.0 0.0 0.00 0.09 0.00
20260507113929 39 273 0.0 0.0 0.00 0.09 0.00
20260507113433 39 273 0.0 0.0 0.00 0.09 0.00
20260507112931 39 273 0.0 0.0 0.00 0.09 0.00
20260507112432 38 273 0.0 0.0 0.00 0.09 0.00
20260507111933 38 273 0.0 0.0 0.00 0.09 0.00
20260507111434 39 273 0.0 0.0 0.00 0.09 0.00
20260507110936 39 273 0.0 0.0 0.00 0.09 0.00
20260507110437 39 273 0.0 0.0 0.00 0.09 0.00
20260507105940 39 273 0.0 0.0 0.00 0.09 0.00
20260507105441 39 273 0.0 0.0 0.00 0.09 0.00
20260507104943 39 273 0.0 0.0 0.00 0.09 0.00
20260507104444 39 273 0.0 0.0 0.00 0.09 0.00
20260507103944 39 273 0.0 0.0 0.00 0.09 0.00
20260507103442 39 273 0.0 0.0 0.00 0.09 0.00
20260507102944 39 273 0.0 0.0 0.00 0.09 0.00
20260507102445 39 273 0.0 0.0 0.00 0.09 0.00
20260507101947 39 273 0.0 0.0 0.00 0.09 0.00
20260507101448 40 273 0.0 0.0 0.00 0.09 0.00
20260507100950 40 273 0.0 0.0 0.00 0.09 0.00
20260507100452 40 273 0.0 0.0 0.00 0.09 0.00
20260507095953 40 273 0.0 0.0 0.00 0.09 0.00
20260507095455 40 273 0.0 0.0 0.00 0.09 0.00
20260507094956 40 273 0.0 0.0 0.00 0.09 0.00
20260507094458 40 273 0.0 0.0 0.00 0.09 0.00
20260507093957 39 273 0.0 0.0 0.00 0.09 0.00
20260507093000 39 273 0.0 0.0 0.00 0.09 0.00
20260507092502 40 273 0.0 0.0 0.00 0.09 0.00
20260507092003 40 273 0.0 0.0 0.00 0.09 0.00
20260507091505 40 273 0.0 0.0 0.00 0.09 0.00
20260507091006 40 273 0.0 0.0 0.00 0.09 0.00
20260507090508 40 273 0.0 0.0 0.00 0.09 0.00
20260507090009 41 273 0.0 0.0 0.00 0.09 0.00
20260507085510 41 273 0.0 0.0 0.00 0.09 0.00
20260507085011 41 273 0.0 0.0 0.00 0.09 0.00
20260507084511 41 273 0.0 0.0 0.00 0.09 0.00
20260507084013 41 273 0.0 0.0 0.00 0.09 0.00
20260507083515 41 273 0.0 0.0 0.00 0.09 0.00
20260507083012 41 273 0.0 0.0 0.00 0.09 0.00
20260507082514 41 273 0.0 0.0 0.00 0.09 0.00
20260507082015 42 273 0.0 0.0 0.00 0.09 0.00
20260507081517 41 273 0.0 0.0 0.00 0.09 0.00
20260507081019 42 273 0.0 0.0 0.00 0.09 0.00
20260507080520 41 273 0.0 0.0 0.00 0.09 0.00
20260507080022 42 273 0.0 0.0 0.00 0.09 0.00
20260507075523 42 273 0.0 0.0 0.00 0.09 0.00
20260507075025 42 273 0.0 0.0 0.00 0.09 0.00
20260507074527 42 273 0.0 0.0 0.00 0.09 0.00
20260507074028 42 273 0.0 0.0 0.00 0.09 0.00
20260507073530 42 273 0.0 0.0 0.00 0.09 0.00
20260507073031 42 273 0.0 0.0 0.00 0.09 0.00
20260507072532 42 273 0.0 0.0 0.00 0.09 0.00
20260507072034 43 273 0.0 0.0 0.00 0.09 0.00
20260507071536 43 273 0.0 0.0 0.00 0.09 0.00
20260507071037 43 273 0.0 0.0 0.00 0.09 0.00
20260507070539 43 273 0.0 0.0 0.00 0.09 0.00
20260507070041 43 273 0.0 0.0 0.00 0.09 0.00
20260507065542 43 273 0.0 0.0 0.00 0.09 0.00
20260507065044 43 273 0.0 0.0 0.00 0.09 0.00
20260507064546 43 273 0.0 0.0 0.00 0.09 0.00
20260507064047 42 273 0.0 0.0 0.00 0.09 0.00
20260507063549 43 273 0.0 0.0 0.00 0.09 0.00
20260507063050 43 273 0.0 0.0 0.00 0.09 0.00
20260507062552 43 273 0.0 0.0 0.00 0.09 0.00
20260507062053 43 273 0.0 0.0 0.00 0.09 0.00
20260507061555 43 273 0.0 0.0 0.00 0.09 0.00
20260507061056 43 273 0.0 0.0 0.00 0.09 0.00
20260507060558 44 273 0.0 0.0 0.00 0.09 0.00
20260507060100 44 273 0.0 0.0 0.00 0.09 0.00
20260507055601 44 273 0.0 0.0 0.00 0.09 0.00
20260507055103 44 273 0.0 0.0 0.00 0.09 0.00
20260507054604 44 273 0.0 0.0 0.00 0.09 0.00
20260507054106 45 273 0.0 0.0 0.00 0.09 0.00
20260507053604 45 273 0.0 0.0 0.00 0.09 0.00
20260507053106 45 273 0.0 0.0 0.00 0.09 0.00
20260507052605 45 273 0.0 0.0 0.00 0.09 0.00
20260507052107 45 273 0.0 0.0 0.00 0.09 0.00
20260507051608 45 273 0.0 0.0 0.00 0.09 0.00
20260507051110 45 273 0.0 0.0 0.00 0.09 0.00
20260507050611 45 273 0.0 0.0 0.00 0.09 0.00
20260507050113 45 273 0.0 0.0 0.00 0.09 0.00
20260507045615 45 273 0.0 0.0 0.00 0.09 0.00
20260507045116 45 273 0.0 0.0 0.00 0.29 0.09
20260507044618 45 273 0.0 0.0 0.00 0.29 0.09
20260507044119 45 273 0.0 0.0 0.00 0.29 0.09
20260507043621 45 273 0.0 0.0 0.00 0.29 0.09
20260507043122 46 273 0.0 0.0 0.00 0.29 0.09
20260507042624 46 273 0.0 0.0 0.00 0.29 0.09
20260507042125 46 273 0.0 0.0 0.00 0.29 0.09
20260507041627 46 273 0.0 0.0 0.00 0.29 0.09
20260507041128 46 273 0.0 0.0 0.00 0.29 0.09
20260507040630 46 273 0.0 0.0 0.00 0.29 0.09
20260507040131 46 273 0.0 0.0 0.00 0.29 0.09
20260507035633 47 273 0.0 0.0 0.00 0.29 0.09
20260507035134 47 273 0.0 0.0 0.00 0.29 0.09
20260507034635 47 273 0.0 0.0 0.00 0.29 0.09
20260507034137 47 273 0.0 0.0 0.00 0.29 0.09
20260507033638 47 273 0.0 0.0 0.00 0.29 0.09
20260507033140 47 273 0.0 0.0 0.00 0.29 0.09
20260507032642 48 273 0.0 0.0 0.00 0.29 0.09
20260507032143 47 273 0.0 0.0 0.00 0.29 0.09
20260507031644 48 273 0.0 0.0 0.00 0.29 0.09
20260507031147 48 273 0.0 0.0 0.00 0.29 0.09
20260507030648 48 273 0.0 0.0 0.00 0.29 0.09
20260507030149 48 273 0.0 0.0 0.00 0.29 0.09
20260507025651 48 273 0.0 0.0 0.00 0.29 0.09
20260507025153 48 273 0.0 0.0 0.00 0.29 0.09
20260507024654 49 273 0.0 0.0 0.00 0.29 0.09
20260507024157 49 273 0.0 0.0 0.00 0.29 0.09
20260507023657 49 273 0.0 0.0 0.00 0.29 0.09
20260507023159 49 273 0.0 0.0 0.00 0.29 0.09
20260507022700 49 273 0.0 0.0 0.00 0.29 0.09
20260507022202 49 273 0.0 0.0 0.00 0.29 0.09
20260507021702 49 273 0.0 0.0 0.00 0.29 0.09
20260507021202 49 273 0.0 0.0 0.00 0.29 0.09
20260507020702 50 273 0.0 0.0 0.00 0.29 0.09
20260507020204 50 273 0.0 0.0 0.00 0.29 0.09
20260507015705 50 273 0.0 0.0 0.00 0.29 0.09
20260507015207 51 273 0.0 0.0 0.00 0.29 0.09
20260507014708 51 273 0.0 0.0 0.00 0.29 0.09
20260507014210 51 273 0.0 0.0 0.00 0.29 0.09
20260507013711 51 273 0.0 0.0 0.00 0.29 0.09
20260507013213 52 243 1.7 0.0 0.00 0.29 0.09
20260507012715 52 295 0.0 0.0 0.00 0.29 0.09
20260507012216 52 295 0.0 0.0 0.00 0.29 0.09
20260507011718 52 295 0.9 0.0 0.00 0.29 0.09
20260507011220 53 280 3.5 0.0 0.00 0.29 0.09
20260507010721 53 263 2.6 2.6 0.00 0.29 0.09
20260507010223 53 259 2.6 1.7 0.00 0.29 0.09
20260507005725 53 245 0.0 4.3 0.00 0.29 0.09
20260507005224 53 302 2.6 3.5 0.00 0.29 0.09
20260507004727 54 255 3.5 2.6 0.00 0.29 0.09
20260507004227 53 287 3.5 0.9 0.00 0.29 0.09
20260507003729 54 266 5.2 4.3 0.00 0.29 0.09
20260507003231 54 264 2.6 0.0 0.00 0.29 0.09
20260507002733 54 235 1.7 4.3 0.00 0.29 0.09
20260507002235 54 218 4.3 5.2 0.00 0.29 0.09
20260507001735 54 255 3.5 5.2 0.00 0.29 0.09
20260507001237 54 245 4.3 5.2 0.00 0.29 0.09
20260507000739 55 307 1.7 3.5 0.00 0.29 0.09
20260507000240 56 356 1.7 4.3 0.00 0.29 0.09
20260506235742 56 193 3.5 7.0 0.00 0.29 0.09
20260506235243 55 278 4.3 2.6 0.00 0.29 0.09
20260506234745 55 280 1.7 2.6 0.00 0.29 0.09
20260506234246 56 287 0.0 0.0 0.00 0.29 0.09
20260506233748 55 287 0.0 0.0 0.00 0.29 0.09
20260506233250 55 287 3.5 0.0 0.00 0.29 0.09
20260506232751 55 236 0.9 5.2 0.00 0.29 0.09
20260506232253 55 280 2.6 0.0 0.00 0.29 0.09
20260506231754 55 307 3.5 0.0 0.00 0.29 0.09
20260506231256 56 290 0.0 0.0 0.00 0.29 0.09
20260506230757 55 290 0.0 0.0 0.00 0.29 0.09
20260506230258 54 290 0.0 0.0 0.00 0.29 0.09
20260506225800 53 349 5.2 0.0 0.00 0.29 0.09
20260506225301 54 322 3.5 4.3 0.00 0.29 0.09
20260506224803 54 0 4.3 4.3 0.00 0.29 0.09
20260506224304 54 346 4.3 4.3 0.00 0.29 0.09
20260506223806 54 356 5.2 6.1 0.00 0.29 0.09
20260506223307 54 338 3.5 2.6 0.00 0.29 0.09
20260506222809 53 352 4.3 3.5 0.00 0.29 0.09
20260506222308 54 1 3.5 4.3 0.00 0.29 0.09
20260506221810 53 345 3.5 3.5 0.00 0.29 0.09
20260506221312 54 329 3.5 2.6 0.00 0.29 0.09
20260506220813 55 7 4.3 3.5 0.00 0.29 0.09
20260506220315 54 354 4.3 6.1 0.00 0.29 0.09
20260506215816 54 11 0.0 3.5 0.00 0.29 0.09
20260506215318 54 218 3.5 0.0 0.00 0.29 0.09
20260506214820 55 203 3.5 0.0 0.00 0.29 0.09
20260506214321 55 158 3.5 3.5 0.00 0.29 0.09
20260506213823 55 295 0.0 2.6 0.00 0.29 0.09
20260506213325 56 293 0.9 5.2 0.00 0.29 0.09
20260506212826 56 194 2.6 2.6 0.00 0.29 0.09
20260506212328 56 307 4.3 5.2 0.00 0.29 0.09
20260506211830 57 187 3.5 3.5 0.00 0.29 0.09
20260506211331 57 300 3.5 5.2 0.00 0.29 0.09
20260506210833 58 356 0.9 4.3 0.00 0.29 0.09
20260506210335 59 318 3.5 0.0 0.00 0.29 0.09
20260506205836 59 301 2.6 0.0 0.00 0.29 0.09
20260506205338 58 273 4.3 7.8 0.00 0.29 0.09
20260506204840 58 205 3.5 0.0 0.00 0.29 0.09
20260506204341 58 200 0.0 5.2 0.00 0.29 0.09
20260506203843 57 160 4.3 2.6 0.00 0.29 0.09
20260506203344 57 264 0.0 0.0 0.00 0.29 0.09
20260506202846 57 273 0.0 0.0 0.00 0.29 0.09
20260506202347 58 169 3.5 2.6 0.00 0.29 0.09
20260506201849 58 246 2.6 0.0 0.00 0.29 0.09
20260506201351 58 187 3.5 5.2 0.00 0.29 0.09
20260506200852 58 335 2.6 5.2 0.00 0.29 0.09
20260506200354 57 146 2.6 0.0 0.00 0.29 0.09
20260506195856 57 201 1.7 0.0 0.00 0.29 0.09
20260506195357 57 228 5.2 6.1 0.00 0.29 0.09
20260506194857 57 221 3.5 0.0 0.00 0.29 0.09
20260506193859 56 305 5.2 4.3 0.00 0.29 0.09
20260506193400 56 349 4.3 4.3 0.00 0.29 0.09
20260506192900 56 181 2.6 0.0 0.00 0.29 0.09
20260506192401 55 308 2.6 0.0 0.00 0.29 0.09
20260506191859 55 333 0.9 4.3 0.00 0.29 0.09
20260506191401 55 250 3.5 0.0 0.00 0.29 0.09
20260506190900 56 354 0.0 0.0 0.00 0.29 0.09
20260506190402 54 354 0.9 0.0 0.00 0.29 0.09
20260506185859 56 257 0.0 0.0 0.00 0.29 0.09
20260506185400 56 267 5.2 5.2 0.00 0.29 0.09
20260506184901 55 10 0.0 0.0 0.00 0.29 0.09
20260506184403 54 13 2.6 2.6 0.00 0.29 0.09
20260506183905 55 233 1.7 5.2 0.00 0.29 0.09
20260506183406 53 249 6.1 2.6 0.00 0.29 0.09
20260506182907 53 253 5.2 0.0 0.00 0.29 0.09
20260506182409 54 277 2.6 2.6 0.00 0.29 0.09
20260506181909 54 273 2.6 2.6 0.00 0.29 0.09
20260506181411 53 280 0.0 0.0 0.00 0.29 0.09
20260506180912 53 270 1.7 0.0 0.00 0.29 0.09
20260506180414 53 302 4.3 2.6 0.00 0.29 0.09
20260506175914 53 342 1.7 0.0 0.00 0.29 0.09
20260506175416 53 352 0.0 2.6 0.00 0.29 0.09
20260506174917 53 274 2.6 3.5 0.00 0.29 0.09
20260506174418 52 113 1.7 0.0 0.00 0.29 0.09
20260506173920 53 321 0.0 0.0 0.00 0.29 0.09
20260506173421 53 321 0.0 0.0 0.00 0.29 0.09
20260506172924 55 321 0.0 0.0 0.00 0.29 0.09
20260506172424 55 321 0.0 0.0 0.00 0.29 0.09
20260506171926 54 321 0.0 0.0 0.00 0.29 0.09
20260506171426 53 321 0.0 0.0 0.00 0.29 0.09
20260506170928 54 321 0.0 0.0 0.00 0.29 0.09
20260506170429 53 321 0.0 0.0 0.00 0.29 0.09
20260506165931 52 321 0.0 0.0 0.00 0.29 0.09
20260506165431 52 321 0.0 0.0 0.00 0.29 0.09
20260506164933 53 321 0.0 0.0 0.00 0.29 0.09
20260506164435 53 321 0.0 0.0 0.00 0.29 0.09
20260506163936 52 321 0.0 0.0 0.00 0.29 0.09
20260506163437 52 321 0.0 0.0 0.00 0.29 0.09
20260506162939 52 321 0.0 0.0 0.00 0.29 0.09
20260506162440 52 321 0.0 0.0 0.00 0.29 0.09
20260506161943 51 321 0.0 0.0 0.00 0.29 0.09
20260506161444 51 321 0.0 0.0 0.00 0.29 0.09
20260506160945 52 321 0.0 0.0 0.00 0.29 0.09
20260506160447 50 321 0.0 0.0 0.00 0.29 0.09